www.pogodaiklimat.ru
ПОГОДА в Октябре

Архив погоды в Октябре (Гомельская область, Беларусь)

Время
(UTC), дата
00 8.07
03 8.07
06 8.07
09 8.07
12 8.07
15 8.07
18 8.07
21 8.07
00 9.07
03 9.07
06 9.07
09 9.07
12 9.07
15 9.07
18 9.07
21 9.07
00 10.07
03 10.07
06 10.07
09 10.07
12 10.07
15 10.07
18 10.07
21 10.07
00 11.07
03 11.07
06 11.07
09 11.07
12 11.07
15 11.07
18 11.07
21 11.07
00 12.07
03 12.07
06 12.07
09 12.07
12 12.07
15 12.07
18 12.07
21 12.07
00 13.07
03 13.07
06 13.07
09 13.07
12 13.07
15 13.07
18 13.07
21 13.07
00 14.07
03 14.07
06 14.07
09 14.07
12 14.07
15 14.07
18 14.07
21 14.07
Ветер
(напр.,м/с)
Видим. Явления Облачность Т
(С)
Тd
(С)
f
(%)
Тe
(С)
Тes
(С)
Комфортность P
(гПа)
Po
(гПа)
Тmin
(С)
Tmax
(С)
R
(мм)
R24
(мм)
S
(см)
ЮВ 3 35 км зарница 4/4 600 м
[Cb cap]
+17.6 +12.7 73 +18 +18 1018.0 1002.0
ЮВ 3 35 км 3/0
[Ac cast]
+17.7 +11.9 69 +18 +27 1018.0 1002.0
Ю 4 35 км 3/0
[Ci fib]
+23.8 +13.3 52 +26 +26 жарко 1017.0 1001.4 +16.4
ЮВ 5 30 км 6/0
[Ci]
+28.2 +14.8 44 +31 +31 душно 1017.0 1001.6
Ю 4 35 км 9/0
[Ci ing]
+30.7 +14.3 37 +33 +33 душно 1017.0 1001.7
Ю 2 35 км 9/0
[Ac cuf Ci fib]
+30.7 +15.9 41 +34 +34 очень душно 1016.0 1000.8
СЗ 1 35 км 9/0
[Ac cuf Ci fib]
+26.1 +18.5 63 +31 +31 очень душно 1017.0 1001.5 +31.3
штиль 0 35 км гроза без осадков 9/5 600 м
[Cb cap Ac cuf]
+22.9 +19.1 79 +29 +29 очень душно 1019.0 1003.3
С 2 30 км в посл. час гроза 8/4 600 м
[Cb cap Ci fib]
+20.3 +18.8 91 +25 +25 комфорт 1019.0 1003.2
С 1 30 км 8/0
[Ac trans Ci fib]
+18.1 +16.8 92 +19 +23 1021.0 1005.0
С 3 25 км 3/0
[Ci fib]
+20.2 +17.4 84 +24 +24 комфорт 1021.0 1005.2 +17.9
С 2 35 км 3/3 1000 м
[Cu hum]
+25.3 +18.5 66 +30 +30 душно 1021.0 1005.4
СЗ 2 35 км 3/3 1000 м
[Cu med, cong]
+27.4 +16.4 51 +31 +31 душно 1021.0 1005.5
С 2 35 км 1/1 1000 м
[Cu hum]
+27.5 +15.8 49 +31 +31 душно 1021.0 1005.5
штиль 1 35 км ясно +25.1 +15.7 56 +28 +28 жарко 1022.0 1006.4 +28.5
штиль 1 35 км ясно +20.3 +13.3 64 +24 +24 комфорт 1023.0 1007.1
С 1 35 км 4/0
[Ac trans]
+17.1 +12.8 76 +18 +18 1024.0 1007.9
штиль 2 35 км 3/0
[Ci fib]
+17.4 +12.1 71 +18 +29 1024.0 1007.9
штиль 2 35 км ясно +22.3 +14.4 61 +26 +26 жарко 1024.0 1008.2 +16.8
С 3 30 км ясно +25.7 +14.5 50 +28 +28 жарко 1024.0 1008.4
штиль 3 35 км ясно +28.1 +12.0 37 +29 +29 жарко 1023.0 1007.5
С 2 10 км / баллов +28.6 +12.9 38 +30 +30 жарко 1022.0 1006.6
штиль 2 35 км ясно +25.2 +12.4 45 +27 +27 жарко 1021.0 1005.4 +29.2
штиль 1 35 км ясно +20.2 +12.7 62 +23 +23 комфорт 1023.0 1007.1
штиль 1 35 км ясно +18.2 +13.1 72 +20 +20 1022.0 1006.0
штиль 1 30 км ясно +17.6 +13.5 77 +19 +37 опасность простуды 1022.0 1006.0
В 1 35 км ясно +24.6 +17.8 66 +29 +29 душно 1021.0 1005.4 +16.5
ЮВ 3 35 км 8/5 600 м
[Cu med, cong Ci fib]
+28.4 +18.8 56 +34 +34 очень душно 1020.0 1004.6
ЮВ 3 35 км 8/4 600 м
[Cu med, cong Ci fib]
+31.1 +17.4 44 +35 +35 очень душно 1018.0 1002.8
ЮВ 2 35 км 8/4 600 м
[Cu med, cong Ci fib]
+32.2 +17.6 42 +36 +36 очень душно 1016.0 1000.9
В 1 30 км 3/0
[Ci fib]
+29.1 +19.1 55 +35 +35 очень душно 1017.0 1001.7 +32.8
В 2 35 км 3/0
[Ci fib]
+25.1 +19.2 70 +30 +30 душно 1016.0 1000.5
В 2 28 км зарница 4/4 600 м
[Cb cap]
+22.6 +19.2 81 +29 +29 очень душно 1016.0 1000.4
В 1 27 км 4/0
[Ac trans Ci fib]
+21.6 +19.2 86 +27 +37 душно 1015.0 999.3
ЮЗ 4 35 км гроза без осадков 8/6 600 м
[Cb cap Ac cuf]
+24.4 +19.2 73 +29 +29 душно 1016.0 1000.5 +20.5
ЮЗ 3 30 км {гроза} 8/0
[Ac trans Ci fib]
+31.1 +18.8 48 +36 +36 очень душно 1014.0 998.8
З 3 30 км {гроза} 6/3 1000 м
[Cu med, cong Ci fib]
+33.4 +20.2 46 +40 +40 очень душно 1013.0 998.0
ЮЗ 4 {12} 29 км гроза без осадков {ливн. дождь} 8/6 600 м
[Cb cap Ac cuf]
+26.3 +16.8 56 +30 +30 душно 1014.0 998.6
С 1 10 км 8 баллов +26.2 +20.1 69 +32 +32 очень душно 1013.0 997.6 +34.2 4
штиль 0 26 км 4/0
[Ci fib]
+21.9 +19.3 85 +27 +27 душно 1014.0 998.4
В 1 10 км 3 балла +20.2 +18.9 92 +25 +25 комфорт 1013.0 997.3
штиль 0 11 км 3/0
[Ci fib]
+19.9 +18.7 93 +23 +37 комфорт 1013.0 997.3
В 1 29 км ясно +26.7 +21.0 71 +34 +34 очень душно 1012.0 996.7 +19.2
Ю 2 35 км ясно +33.4 +17.5 39 +37 +37 очень душно 1011.0 996.0
ЮЗ 5 35 км 3/3 1000 м
[Cu med, cong]
+35.9 +18.0 35 +40 +40 очень душно 1010.0 995.1
Ю 6-10 {12} 28 км 3/1 1000 м
[Cu med, cong Ci fib]
+35.6 +15.8 31 +38 +38 очень душно 1008.0 993.1
Ю 2 {10} 35 км 4/3 600 м
[Cu med, cong Ac trans]
+30.0 +17.4 47 +34 +34 очень душно 1009.0 993.8 +36.6
З 1 {11} 9000 м гроза, ливневой дождь 9/9 600 м
[Cb cap]
+22.0 +18.4 80 +27 +27 душно 1012.0 996.4
Ю 1 25 км зарница {гроза, ливн. дождь} 6/6 600 м
[Cb cap]
+20.4 +19.2 93 +25 +25 комфорт 1012.0 996.3
СЗ 1 10 км 8 баллов +19.8 +19.1 96 +24 +28 комфорт 1013.0 997.3
штиль 1 10 км 4 балла +24.5 +20.6 79 +30 +30 очень душно 1013.0 997.5 +19.0 1
В 2 10 км 4 балла +29.6 +20.4 58 +36 +36 очень душно 1013.0 997.8
штиль 2 10 км 4 балла +31.8 +20.4 51 +39 +39 очень душно 1011.0 995.9
С 2 {24} 9000 м гроза, ливневой дождь 10 баллов +19.8 +19.0 95 +23 +23 комфорт 1015.0 999.2
З 1 10 км 10 баллов +19.6 +18.9 96 +23 +23 комфорт 1014.0 998.2 +32.1 7
ЮЗ 1 700 м туман, небо видно н/о +18.8 +18.6 99 +21 +21 комфорт 1015.0 999.2
Местоположение метеостанции Октябрь (Гомельская область, Беларусь): широта 52.63 долгота 28.87 высота над уровнем моря 135 м.
В архиве по умолчанию представлена погода в Октябре за последнюю неделю. Архивные данные за месяц целиком и за предыдущие месяцы, начиная с января 2011 года, Вы можете получить, выбрав интересующий диапазон дат из раскрывающегося списка и нажав кнопку "Найти!".
*Определитесь, кто Вы:
Внимание! Время в таблицах - всемирное. Для получения местного времени необходимо прибавить поправку, которая равна 3 ч.
Некоторые строки с данными для отдельных станций могут быть выделены курсивом. Это означает, что фактические данные отсутствуют по различным причинам, а приведенные значения являются расчетными модельными данными для данного пункта наблюдений.
Смотрите также архив погоды в соседних городах и на ближайших метеорологических станциях:
Партнеры нашего сайта:      
Пояснения к столбцам:
  • Ветер - указаны скорость ветра в м/с - средняя за 10 мин, порывы в срок и между сроками (в фигурных скобках) и направление, откуда дует ветер: С - северный,
  • СВ - северо-восточный, В - восточный, ЮВ - юго-восточный, Ю - южный, ЮЗ - юго-западный, З - западный, СЗ - северо-западный.
  • Видимость - горизонтальная дальность видимости в метрах или километрах. При видимости от 1 до 10 км при отсутствии осадков обычно наблюдается дымка, при ухудшении видимости до 1 км и менее - туман. В сухую погоду видимость может ухудшаться дымом, пылью или мглою.
  • Явления - указаны атмосферные явления, наблюдавшиеся в срок или в последний час перед сроком; фигурными скобками обозначены явления, наблюдавшиеся между сроками (за 1-3 часа до срока); квадратными скобками обозначены град или гололедные отложения с указанием их диаметра в мм.
  • Облачность - указаны через наклонную черту общая и нижняя облачность в баллах и высота нижней границы облаков в метрах; квадратными скобками обозначены формы облаков: Ci - перистые, Cs - перисто-слоистые, Cc - перисто-кучевые, Ac - высококучевые, As - высокослоистые, Sc - слоисто-кучевые, Ns - слоисто-дождевые, Cu - кучевые, Cb - кучево-дождевые. Подробнее классификацию облаков см. в Атласе облаков (PDF).
  • T - Температура воздуха - температура, измеренная на высоте 2 м над землей.
  • Td - Температура точки росы - температура, при понижении до которой содержащийся в воздухе водяной пар достигнет насыщения.
  • f - Относительная влажность воздуха - влажноcть воздуха, измеренная на высоте 2 м над землей.
  • Te - Эффективная температура - температура, которую ощущает одетый по сезону человек в тени. Характеристика душности погоды. При расчете учитывается влияние влажности воздуха и скорости ветра на теплоощущения человека.
  • Tes - Эффективная температура на солнце - температура, которую ощущает человек, с поправкой на солнечный нагрев. Характеристика знойности погоды. Зависит от высоты солнца над горизонтом, облачности и скорости ветра. Ночью, в пасмурную погоду, а также при ветре 12 м/с и более поправка равна нулю.
  • P - Атмосферное давление - приведенное к уровню моря атмосферное давление.
  • Po - Атмосферное давление - измеренное на уровне метеостанции атмосферное давление.
  • Tmin - Минимальная температура - минимум температуры воздуха на высоте 2 м над землей.
  • Tmax - Максимальная температура - максимум температуры воздуха на высоте 2 м над землей.
  • R - Количество осадков - Количество выпавших осадков за период времени, мм. При наведении курсора мыши на число - период времени, за который выпало указанное количество осадков.
  • R24 - Количество осадков - Количество выпавших осадков за 24 часа, мм.
  • S - Снежный покров - Высота снежного покрова, см. При наведении курсора мыши на число - состояние снежного покрова и степень покрытия местности в баллах.